Content
SEND FEEDBACK

Daily
Averages
Monthly
Summary
Canada

MONTREAL, QUEBEC


Home > North America > Canada > Quebec
Elevation: 118 feet     Latitude: 45 28N     Longitude: 073 45W

WEATHER
 
SELECT A DAY
Number of Records: 198,145;   Date Range: 1/1/95 - 7/28/14
 
SHARE

PRINT THIS DATA

[ ← Previous Day ]
WEATHER ALMANAC - MARCH 31, 2013
[ Next Day → ]
[ °C ]   °F
Weather ElementAverageHighLow
Temperature42.4 °F52 °F (2:00 pm)32 °F (7:00 am)
Dewpoint27 °F39.2 °F (8:00 pm)20 °F (2:00 am)
Humidity54.8 %87 % (10:00 pm)24 % (2:00 pm)
Barometer29.89 in30.06 in (12:58 am)29.68 in (11:00 pm)
Wind Speed10.2 mph24.2 mph (3:00 pm)
Wind Gust25.3 mph (5:00 pm)
Weather ElementAverage
Visibility19.9 mi
Wind DirectionSSE (147.1 °)

Weather ElementTotal
Precipitation---
Heating Degree Days23 (Base 65)
Averaged from 28 records on March 31, 2013
WEATHER CONDITIONS BREAKOUT
WIND DIRECTION BREAKOUT
WEATHER BY HOUR - MARCH 31, 2013
[ °C ]   °F
Local TimeTemperatureDewpointHumidityBarometerVisibilityWind DirectionWind SpeedGust SpeedPrecipitationEventsConditions
12:58 AM35.6 °F21.2 °F56 %30.06 in15.0 miSouth (190°)5.8 mphClear
1:42 AM35.6 °F21.2 °F56 %30.06 in15.0 miSouth (170°)3.5 mphMostly Cloudy
2:00 AM35.0 °F20.0 °F42 %30.06 in15.0 miSE (140°)3.5 mphClear
2:00 AM35.6 °F21.2 °F56 %30.06 in15.0 miSE (140°)3.5 mphMostly Cloudy
3:00 AM35.6 °F21.2 °F56 %30.05 in15.0 miSouth (170°)3.5 mphMostly Cloudy
4:00 AM33.8 °F21.2 °F60 %30.03 in15.0 miSE (140°)4.6 mphMostly Cloudy
5:00 AM33.8 °F21.2 °F60 %30.02 in15.0 miCalmPartly Cloudy
6:00 AM33.8 °F21.2 °F60 %30.00 in15.0 miSE (130°)5.8 mphScattered Clouds
7:00 AM32.0 °F21.2 °F64 %29.99 in30.0 miESE (120°)5.8 mphMostly Cloudy
8:00 AM36.0 °F23.0 °F46 %29.99 in28.0 miSSE (150°)8.1 mphPartly Cloudy
8:00 AM35.6 °F23.0 °F60 %29.99 in30.0 miSSE (150°)6.9 mphMostly Cloudy
9:00 AM39.2 °F24.8 °F56 %29.96 in30.0 miSE (140°)10.4 mphMostly Cloudy
10:00 AM42.8 °F26.6 °F53 %29.95 in30.0 miSE (140°)9.2 mphMostly Cloudy
11:00 AM44.6 °F26.6 °F49 %29.92 in30.0 miSE (140°)11.5 mphMostly Cloudy
12:00 PM48.2 °F28.4 °F46 %29.89 in30.0 miSE (140°)13.8 mphOvercast
1:00 PM51.8 °F26.6 °F38 %29.85 in30.0 miSSE (150°)16.1 mphOvercast
2:00 PM52.0 °F26.0 °F24 %29.82 in28.0 miSSE (150°)20.7 mphOvercast
2:00 PM51.8 °F26.6 °F38 %29.82 in30.0 miSE (140°)21.9 mphOvercast
3:00 PM51.8 °F24.8 °F35 %29.79 in30.0 miSSE (150°)24.2 mphOvercast
4:00 PM51.8 °F28.4 °F41 %29.75 in15.0 miSSE (150°)19.6 mphOvercast
5:00 PM51.8 °F26.6 °F38 %29.73 in15.0 miSSE (150°)18.4 mph25.3 mphOvercast
6:00 PM50.0 °F28.4 °F43 %29.72 in15.0 miSSE (150°)12.7 mph19.6 mphOvercast
7:00 PM50.0 °F33.8 °F54 %29.74 in15.0 miSSW (200°)20.7 mphRainLight Rain Showers
8:00 PM45.0 °F39.0 °F71 %29.74 in12.0 miSSE (160°)10.4 mphRainLight Rain Showers
8:00 PM44.6 °F39.2 °F81 %29.74 in12.0 miSSE (160°)10.4 mphRainLight Rain Showers
9:00 PM44.6 °F37.4 °F76 %29.73 in8.0 miSouth (180°)6.9 mphRainLight Rain
10:00 PM42.8 °F39.2 °F87 %29.70 in8.0 miEast (100°)4.6 mphRainLight Rain
11:00 PM42.8 °F39.2 °F87 %29.68 in12.0 miSW (220°)2.3 mphRainLight Rain
Hourly data recorded from CYUL, located miles away from Montreal, Quebec







STORIES FROM OUR PARTNERS